Lid_Strength_Index
11 12 13 14 14 14 15 15 15 14 14 15 16 15 14 15 15 16 16 16 15 13 11 10 9 9 9 9 9 8 8 8 8 8 8 8 8 8 8 8 8 8 8 7
12 13 13 14 14 15 15 15 16 15 14 15 16 15 14 15 15 15 16 16 15 13 11 10 10 9 10 10 9 9 9 8 8 8 8 8 8 8 8 8 8 8 8 8
13 13 13 14 15 15 16 16 16 16 16 15 16 16 16 16 16 16 16 15 15 14 12 11 10 10 10 10 9 9 9 8 8 8 8 8 8 8 9 8 8 8 8 7
13 13 14 14 15 16 16 15 15 15 16 17 16 16 16 17 16 16 16 16 15 14 11 11 10 10 10 9 9 9 9 8 8 8 9 9 10 10 9 9 8 8 8 7
14 15 15 15 15 16 16 15 15 15 17 17 17 17 15 17 16 16 16 16 16 14 12 11 11 10 10 10 10 9 9 9 9 9 9 9 9 9 9 8 8 8 7 7
15 14 14 15 15 16 15 16 16 17 17 18 18 17 16 16 15 15 16 16 16 15 12 11 11 10 10 10 10 9 9 9 9 9 9 9 9 9 9 9 9 8 8 8
15 15 14 15 16 15 16 17 18 17 18 18 18 18 15 15 16 15 15 16 16 16 13 12 11 11 10 10 10 10 10 10 9 9 9 9 9 9 9 9 9 9 9 8
16 17 15 16 16 16 17 17 18 19 20 19 18 19 14 16 16 16 16 16 16 16 14 13 12 11 11 10 10 10 10 10 9 9 9 9 9 9 9 9 9 9 9 8
16 16 16 16 16 16 17 18 17 20 20 20 18 17 16 17 17 17 17 17 17 16 14 13 13 12 11 11 11 10 10 10 9 9 9 9 9 9 9 9 8 8 8 8
15 17 16 16 16 17 17 17 18 18 20 20 19 19 16 17 17 17 18 18 17 16 15 14 13 13 12 12 11 11 10 10 10 10 10 9 9 9 9 9 9 8 8 8
15 16 17 16 17 18 18 19 19 19 19 19 21 17 16 15 15 16 17 17 17 16 15 14 13 13 12 12 12 11 11 11 10 10 10 10 10 9 9 9 9 8 8 8
15 16 18 17 17 16 17 18 18 18 20 22 20 18 15 16 15 15 16 17 16 16 15 14 14 13 13 13 12 12 11 11 10 10 10 10 10 10 9 9 9 8 8 8
14 16 18 18 17 16 18 18 18 19 19 21 18 17 17 18 17 16 15 17 17 17 16 14 14 14 14 13 13 12 12 11 11 11 11 10 10 10 10 10 9 9 9 8
12 17 16 17 17 16 18 19 18 18 19 19 19 17 17 17 17 16 16 16 17 17 16 15 14 14 14 13 13 13 12 12 11 11 11 11 11 11 11 10 10 10 9 9
14 16 17 17 17 16 16 17 19 20 18 17 16 18 15 15 16 16 15 17 18 17 17 15 15 14 14 14 13 13 12 12 12 12 11 11 11 11 11 11 10 10 10 10
16 16 17 17 17 17 17 17 18 18 18 19 18 17 15 15 17 17 17 17 17 17 16 15 14 14 14 14 13 13 12 12 12 12 11 11 11 11 11 11 11 11 11 11
16 17 18 18 17 17 18 17 17 18 18 17 18 14 16 16 17 17 17 17 17 17 16 15 14 14 14 14 13 13 12 12 12 12 11 11 11 11 12 12 12 12 11 11
17 17 17 18 18 19 15 16 16 16 16 17 16 16 15 15 16 16 17 17 17 16 16 15 14 14 13 13 13 12 12 12 12 12 12 11 11 12 12 12 13 12 12 12
16 16 19 18 19 16 14 16 16 16 14 14 15 14 15 16 16 16 17 16 16 16 15 14 13 13 13 13 13 13 13 13 13 12 12 12 11 12 12 13 13 13 12 12
16 17 16 19 19 19 15 15 15 15 16 14 15 15 17 16 15 13 15 16 17 16 16 15 14 14 13 13 13 13 13 13 13 13 12 12 11 12 12 13 13 13 13 12
18 18 19 19 19 17 14 15 15 17 14 14 14 15 17 16 13 15 17 18 17 17 17 15 14 14 13 13 13 14 13 14 12 12 12 12 12 12 12 12 13 13 13 13
16 18 19 20 20 18 14 15 15 13 14 13 14 15 16 16 15 16 17 18 18 18 17 15 15 15 14 14 13 14 14 13 12 12 12 12 12 12 12 12 12 13 13 13
16 14 15 15 16 13 14 13 13 13 14 13 14 14 15 16 16 16 16 18 18 17 17 16 15 15 15 14 14 14 13 13 13 13 13 12 12 12 12 12 12 13 13 13
15 14 15 15 13 14 13 12 13 13 13 13 13 13 15 15 16 16 17 17 18 17 17 16 16 16 16 15 14 14 14 13 13 13 13 12 13 12 12 12 12 12 13 13
14 14 15 15 13 13 12 12 11 12 12 13 14 13 14 15 15 16 16 17 17 17 16 16 16 16 15 15 15 14 14 14 14 14 13 13 13 12 12 12 12 12 12 12
14 14 14 14 12 12 12 12 11 12 11 11 13 14 14 14 14 16 16 16 17 16 16 16 16 15 15 15 15 15 14 14 14 14 14 13 13 13 13 13 12 11 10 10